Regional Weather Roundup
Issued by NWS Bismarck, ND

Home | Current Version | Previous Version | Text Only | Print | Product List | Glossary On
Versions: 1 2 3 4 5 6 7 8 9 10 11 12 13 14 15 16 17 18 19 20 21 22 23 24 25 26 27 28 29 30 31 32 33 34 35 36 37 38 39 40 41 42 43 44 45 46 47 48 49 50
000
ASUS43 KBIS 191920
RWRBIS

NWR BROADCAST TEXT
NATIONAL WEATHER SERVICE BISMARCK ND
200 PM CDT SAT APR 19 2014

NOTE: "FAIR" INDICATES FEW OR NO CLOUDS BELOW 12,000 FEET WITH NO
SIGNIFICANT WEATHER AND/OR OBSTRUCTIONS TO VISIBILITY.


CITY           SKY/WX    TMP DP  RH WIND       PRES   REMARKS
WILLISTON      PTSUNNY   52  34  50 W15       29.92R
MINOT          CLOUDY    48  35  60 W20       29.88R
MINOT AFB      CLOUDY    47  37  66 W20       29.87R
BISMARCK       SUNNY     65  29  25 W21G30    29.92S
DICKINSON      SUNNY     58  33  39 NW18G28   29.92R
GARRISON         N/A     51  36  56 W23G32    29.91R
HETTINGER ARPT SUNNY     60  28  29 W26G36    29.97R
JAMESTOWN      MOSUNNY   63  32  31 NW25G32   29.88R
CARRINGTON     FAIR      59  37  44 W26       29.88S
CROSBY         MOCLDY    46  37  71 W21G32    29.90R
HARVEY         FAIR      50  37  62 W22G31    29.89R
HAZEN          FAIR      55  36  47 W20G25    29.93S
LINTON         FAIR      64  28  25 W16G25    29.93S
MANDAN         FAIR      59  32  36 W25G33    29.91F
OAKES          FAIR      64  32  29 W17       29.93S
RUGBY          CLOUDY    46  39  76 W26G33    29.85R
STANLEY        CLOUDY    46  36  66 W20G29    29.89R
TIOGA          MOCLDY    46  34  61 NW17G28   29.92R
WATFORD CITY   MOCLDY    50  34  53 W12G20    29.91S
$$

CITY           SKY/WX    TMP DP  RH WIND       PRES   REMARKS
GRAND FORKS    MOSUNNY   60  37  42 W24G30    29.84R
GRAND FORKS AF MOSUNNY   62  35  37 NW22G31   29.84R
DEVILS LAKE    CLOUDY    54  37  54 W28       29.86R
FARGO          PTSUNNY   66  28  24 SW18      29.88S
CANDO          CLOUDY    48  37  66 W28G35    29.83R
CAVALIER       MOCLDY    54  39  58 W23G33    29.79R
GRAFTON        CLOUDY    54  37  54 W28G38    29.82R
GWINNER        CLEAR     64  32  29 W21G28    29.93F
LANGDON        CLOUDY    50  39  66 W28G39    29.79R
ROLLA          MOCLDY    48  37  66 W21G31    29.80R
WALHALLA         N/A     50  39  66 W16G32    29.78R
$$

CITY           SKY/WX    TMP DP  RH WIND       PRES   REMARKS
ABERDEEN       MOSUNNY   67  24  19 W16       29.96F
MOBRIDGE       SUNNY     65  26  23 NW17G25   29.93F
BUFFALO          N/A     60  22  23 W21G30    29.93F
RAPID CITY     MOSUNNY   59  18  20 VRB7      30.03F
GLASGOW        MOSUNNY   53  36  52 W12       29.93F
SIDNEY         PTSUNNY   55  34  44 W15G21    29.96R
WOLF POINT     PTSUNNY   54  35  48 W16G22    29.96R
GLENDIVE       MOSUNNY   57  34  41 W15G22    29.96F
MILES CITY     SUNNY     58  26  29 W12G21    29.97F
BAKER          MOSUNNY   57  31  37 NW17G23   29.98F
$$

CITY           SKY/WX    TMP DP  RH WIND       PRES   REMARKS
BILLINGS       MOSUNNY   57  16  20 VRB3      29.96F
GREAT FALLS    SUNNY     57  15  19 S9G22     29.89F
REGINA         CLOUDY    37  32  81 NW21G30   29.87R
ESTEVAN        PTSUNNY   43  37  81 W17G23    29.87
$$




USA.gov is the U.S. government's official web portal to all federal, state and local government web resources and services.